DateTimeUTC,F1_A11,F1_S11,BsB_S11,BsG_S11,BsR_S11,BbsB_S11,BbsG_S11,BbsR_S11,BaB_A11,BaG_A11,BaR_A11,Tu_S11,T_S11,Uu_S11,U_S11,P_S11,T1_A11
2021-07-15T19:00:00Z,00000200,20000000,,,,,,,-000.28,-000.08,-000.36,18.6,24.9,09.1,06.2,0662.2,31.0
2021-07-15T19:01:00Z,00000200,20000000,,,,,,,0000.20,0000.16,0000.68,18.6,24.9,09.0,06.1,0662.3,31.0
2021-07-15T19:02:00Z,00000200,20000000,,,,,,,0000.05,-000.03,-000.29,18.6,24.9,09.0,06.1,0662.3,31.0
2021-07-15T19:03:00Z,00000200,60000000,,,,,,,-000.12,0000.21,-000.08,18.6,24.9,09.0,06.1,0662.3,31.0
2021-07-15T19:04:00Z,00000200,40000000,0000.21,0000.19,-000.20,0000.00,-000.22,0000.19,0000.27,-000.11,0000.10,18.6,24.8,09.2,06.3,0663.2,31.0
2021-07-15T19:05:00Z,00000200,00000000,-000.44,0000.06,0000.08,-000.30,0000.17,0000.00,0000.10,0000.12,0000.26,18.6,24.7,09.1,06.2,0663.2,31.0
2021-07-15T19:06:00Z,00000200,00000000,-000.15,0000.09,0000.11,0000.05,0000.00,0000.13,0000.14,0000.27,0000.23,18.6,24.7,09.2,06.3,0663.4,31.0
2021-07-15T19:07:00Z,00000200,00000000,-000.04,0000.45,0000.09,-000.08,0000.23,0000.16,0000.11,-000.17,-000.22,18.7,24.7,09.1,06.3,0663.3,31.0
2021-07-15T19:08:00Z,00000200,00000000,-000.29,0000.39,0000.17,-000.24,0000.15,0000.15,0000.35,0000.18,0000.01,18.7,24.8,09.2,06.3,0663.4,31.0
2021-07-15T19:09:00Z,00000200,00000000,-000.25,0000.12,-000.18,0000.06,-000.23,0000.06,-000.15,0000.15,0000.03,18.7,24.8,09.3,06.4,0663.6,31.0
2021-07-15T19:10:00Z,00000200,00000000,0000.51,0000.20,0000.33,-000.15,0000.00,0000.08,0000.11,0000.28,0000.08,18.7,24.8,09.3,06.4,0663.3,31.0
2021-07-15T19:11:00Z,00000200,00000000,0000.04,0000.12,0000.13,-000.51,0000.11,0000.04,-000.13,-000.30,-000.06,18.7,24.8,09.1,06.3,0663.3,31.0
2021-07-15T19:12:00Z,00000200,00000000,-000.04,0000.14,0000.08,-000.04,0000.06,-000.05,0000.35,0000.05,0000.22,18.7,24.7,09.1,06.2,0663.5,31.0
2021-07-15T19:13:00Z,00000200,00000000,-000.00,0000.01,-000.17,0000.23,0000.02,0000.05,-000.38,0000.06,-000.04,18.7,24.7,09.1,06.3,0663.5,31.0
2021-07-15T19:14:00Z,00000200,00000000,0000.58,0000.19,-000.10,0000.12,0000.17,-000.06,0000.27,0000.24,0000.33,18.6,24.7,09.2,06.4,0663.7,31.0
2021-07-15T19:15:00Z,00000200,00000000,0000.17,-000.05,-000.09,-000.27,-000.17,0000.13,0000.06,0000.07,-000.11,18.6,24.7,09.4,06.5,0663.5,31.0
2021-07-15T19:16:00Z,00000200,00000000,0000.20,0000.07,0000.04,0000.11,0000.04,0000.24,0000.11,-000.31,0000.04,18.6,24.7,09.3,06.4,0663.4,31.0
2021-07-15T19:17:00Z,00000200,00000000,0000.32,0000.06,-000.02,-000.14,0000.07,0000.25,0000.09,0000.40,0000.02,18.6,24.7,09.3,06.4,0663.4,31.0
2021-07-15T19:18:00Z,00000200,00000000,0000.33,0000.43,-000.11,-000.29,0000.01,0000.02,0000.17,0000.42,0000.16,18.6,24.7,09.4,06.5,0663.3,31.0
2021-07-15T19:19:00Z,00000200,00000000,0000.06,0000.11,-000.19,0000.04,0000.21,0000.15,-000.15,-000.29,-000.16,18.6,24.7,09.3,06.4,0663.4,31.0
2021-07-15T19:20:00Z,00000200,00000000,0000.09,0000.34,-000.00,0000.51,0000.31,0000.00,0000.31,0000.09,0000.13,18.6,24.7,09.2,06.3,0663.3,31.0
2021-07-15T19:21:00Z,00000200,00000000,-000.05,-000.03,0000.14,0000.16,-000.01,0000.16,0000.00,0000.25,-000.06,18.6,24.7,09.3,06.4,0663.6,31.0
2021-07-15T19:22:00Z,00000200,00000000,0001.05,0000.43,0000.15,-000.41,0000.21,-000.19,-000.09,-000.20,0000.28,18.6,24.7,09.2,06.4,0663.6,31.0
2021-07-15T19:23:00Z,00000200,00000000,0000.32,0000.11,0000.07,-000.10,0000.28,-000.13,0000.38,0000.03,0000.03,18.7,24.7,09.3,06.4,0663.7,31.0
2021-07-15T19:24:00Z,00000200,00000000,-000.26,0000.13,0000.11,-000.15,-000.10,-000.18,0000.01,0000.22,0000.03,18.7,24.8,09.3,06.5,0663.6,31.1
2021-07-15T19:25:00Z,00000200,00000000,-000.55,0000.22,-000.11,-000.42,-000.03,0000.36,0000.30,0000.21,0000.26,18.7,24.8,09.3,06.4,0663.8,31.0
2021-07-15T19:26:00Z,00000200,00000000,0000.08,0000.24,0000.40,0000.22,0000.08,0000.02,-000.02,-000.22,0000.02,18.7,24.7,09.4,06.5,0663.8,31.0
2021-07-15T19:27:00Z,00000200,00000000,0000.19,-000.21,-000.10,-000.68,0000.09,0000.09,0000.07,0000.24,0000.41,18.7,24.7,09.4,06.5,0664.0,31.0
2021-07-15T19:28:00Z,00000200,00000000,-000.29,0000.21,-000.18,0000.20,0000.15,-000.02,0000.16,0000.24,-000.42,18.7,24.7,09.5,06.6,0663.9,31.1
2021-07-15T19:29:00Z,00000200,00000000,-000.15,-000.11,0000.28,0000.05,-000.18,0000.01,0000.04,-000.04,-000.02,18.7,24.7,09.5,06.5,0663.9,31.0
2021-07-15T19:30:00Z,00000200,00000000,0000.49,0000.33,0000.20,-000.07,0000.28,0000.30,-000.55,-000.54,-000.04,18.6,24.7,09.4,06.5,0663.6,31.0
2021-07-15T19:31:00Z,00000200,00000000,0000.10,0000.46,0000.10,0000.07,0000.13,0000.18,0000.09,0000.51,-000.07,18.7,24.7,09.1,06.3,0663.6,31.0
2021-07-15T19:32:00Z,00000200,00000000,-000.17,0000.19,-000.18,0000.33,0000.17,-000.10,0000.08,-000.16,0000.01,18.7,24.7,09.1,06.3,0663.6,31.0
2021-07-15T19:33:00Z,00000200,00000000,-000.02,-000.00,-000.32,-000.04,0000.13,0000.19,0000.23,-000.09,-000.05,18.6,24.7,09.2,06.3,0663.5,31.0
2021-07-15T19:34:00Z,00000200,00000000,-000.08,0000.03,0000.08,0000.36,0000.07,0000.06,-000.05,0000.16,0000.43,18.6,24.7,09.1,06.3,0663.6,31.0
2021-07-15T19:35:00Z,00000200,00000000,-000.18,0000.11,-000.13,0000.13,0000.15,-000.30,0000.41,0000.31,0000.00,18.6,24.7,09.2,06.4,0663.5,31.0
2021-07-15T19:36:00Z,00000200,00000000,0000.26,0000.30,0000.06,-000.27,-000.26,0000.15,-000.28,0000.37,-000.08,18.6,24.7,09.2,06.3,0663.6,31.0
2021-07-15T19:37:00Z,00000200,00000000,0000.32,0000.08,0000.04,-000.42,0000.14,0000.11,0000.06,-000.43,0000.11,18.7,24.7,09.1,06.3,0663.5,31.0
2021-07-15T19:38:00Z,00000200,00000000,0000.58,0000.19,0000.18,0000.27,0000.19,0000.23,-000.09,0000.09,-000.35,18.7,24.8,09.0,06.2,0663.5,31.0
2021-07-15T19:39:00Z,00000200,00000000,0000.71,-000.01,0000.03,0000.46,0000.16,-000.12,-000.14,-000.29,0000.03,18.7,24.7,09.0,06.3,0663.4,31.0
2021-07-15T19:40:00Z,00000200,00000000,-000.15,0000.33,0000.12,0000.03,0000.14,0000.04,0000.34,0000.15,0000.14,18.7,24.7,08.9,06.1,0663.5,31.0
2021-07-15T19:41:00Z,00000200,00000000,0000.07,-000.09,0000.10,-000.25,0000.17,-000.28,-000.41,0000.08,-000.10,18.7,24.7,09.0,06.2,0663.4,31.0
2021-07-15T19:42:00Z,00000200,00000000,-000.03,0000.15,0000.04,-000.08,0000.26,0000.16,0000.26,0000.07,0000.16,18.7,24.7,08.9,06.2,0663.6,31.0
2021-07-15T19:43:00Z,00000200,00000000,0000.02,-000.02,0000.11,0000.02,-000.11,0000.29,0000.25,0000.05,-000.10,18.7,24.7,09.1,06.3,0663.8,31.0
2021-07-15T19:44:00Z,00000200,00000000,-000.21,0000.51,-000.09,-000.49,0000.28,0000.13,-000.09,-000.27,0000.33,18.7,24.7,09.1,06.3,0663.7,31.0
2021-07-15T19:45:00Z,00000200,00000000,-000.35,0000.18,-000.17,-000.09,0000.17,0000.06,-000.01,0000.03,-000.32,18.7,24.7,09.0,06.3,0663.7,31.0
2021-07-15T19:46:00Z,00000200,00000000,-000.68,0000.13,-000.32,-000.41,-000.06,-000.47,0000.20,0000.04,0000.19,18.7,24.7,09.0,06.2,0663.7,31.0
2021-07-15T19:47:00Z,00000200,00000000,-000.22,-000.22,0000.01,0000.21,-000.02,-000.02,-000.33,0000.29,0000.23,18.6,24.7,09.0,06.3,0663.8,31.0
2021-07-15T19:48:00Z,00000200,00000000,-000.35,0000.25,0000.08,-000.17,-000.11,-000.02,0000.63,0000.16,0000.16,18.6,24.7,09.0,06.3,0663.8,31.0
2021-07-15T19:49:00Z,00000200,00000000,0000.43,-000.03,-000.13,-000.00,-000.12,-000.16,-000.36,-000.08,-000.29,18.6,24.7,09.1,06.3,0663.8,31.0
2021-07-15T19:50:00Z,00000200,00000000,-000.41,0000.29,-000.12,-000.21,0000.11,-000.24,0000.20,0000.19,-000.03,18.6,24.7,09.2,06.3,0663.7,31.0
2021-07-15T19:51:00Z,00000200,00000000,0000.62,0000.32,0000.16,0000.12,-000.07,-000.13,0000.47,0000.24,0000.29,18.6,24.7,09.1,06.3,0663.8,31.0
2021-07-15T19:52:00Z,00000200,00000000,-000.49,-000.02,0000.04,-000.16,0000.23,0000.33,-000.06,-000.04,0000.02,18.7,24.7,09.3,06.5,0663.7,31.0
2021-07-15T19:53:00Z,00000200,00000000,-000.39,0000.14,-000.06,0000.26,0000.13,-000.05,-000.14,-000.08,-000.09,18.7,24.7,09.3,06.5,0663.7,31.0
2021-07-15T19:54:00Z,00000200,00000000,0000.46,0000.22,0000.01,0000.06,0000.22,-000.19,0000.33,0000.43,0000.25,18.7,24.7,09.1,06.3,0663.6,31.0
2021-07-15T19:55:00Z,00000200,00000000,0000.12,-000.01,-000.18,0000.35,-000.08,-000.03,-000.29,-000.15,-000.29,18.7,24.7,09.1,06.3,0663.8,31.0
2021-07-15T19:56:00Z,00000200,00000000,-000.20,0000.20,0000.39,-000.05,0000.22,0000.01,0000.30,-000.58,0000.29,18.7,24.7,09.0,06.3,0663.8,31.0
2021-07-15T19:57:00Z,00000200,40000000,,,,,,,-000.00,0000.45,0000.01,18.8,24.8,09.1,06.3,0664.1,31.0
2021-07-15T19:58:00Z,00000200,60000000,,,,,,,0000.02,0000.01,-000.16,18.6,24.8,09.3,06.3,0662.9,31.0
2021-07-15T19:59:00Z,00000200,20000000,,,,,,,-000.12,-000.03,-000.04,18.6,24.9,09.0,06.1,0662.9,31.0
